sat.trackr.live / text

‹ back to catalog

STARLINK-35728

NORAD 66544 · 2025-265AE

PAYLOAD ACTIVE UNKNOWN

§ Identity

Operator
Country
US
Launch date
2025-11-19
Launch site
AFETR
Launch vehicle
Mass (kg)
RCS (m²)

Purposes: comms

External: N2YO · Heavens-Above · Gunter

§ Orbital elements

Epoch: 2026-09-20T11:03:59.427936Z

Period
94.27 min
Inclination
43.0008°
Eccentricity
0.0001589
Mean motion
15.27594297 rev/d
Perigee alt
481.9 km
Apogee alt
484.1 km
Semi-major
6,861.1 km
B*
4.8921e-4
RAAN
257.7524°
Arg perigee
266.3584°
Mean anomaly
93.7086°
Rev number
4,690

§ Raw data

STARLINK-357281 66544U 25265AE  26263.46110449  .00013230  00000+0  48921-3 0  99982 66544  43.0008 257.7524 0001589 266.3584  93.7086 15.27594297 46904

JSON: /api/v1/satellites/66544 · /tle

For live sub-satellite position, see the globe view (requires WebGL).

§ Visibility from observer

Set your observer location to see the next 7 days of passes ≥ 10°. The values pass through the URL so the page stays shareable.

No JS? Fill the form by hand. The geolocation button needs JavaScript.